Starlink 35498

operational
NORAD ID: 67017 Int'l Des: 2025-293 Owner: SPXS Country: US Constellation: starlink
LEOCIRCULAR

About Starlink 35498

Description loading...

Live Position

Loading 3D Globe...

Upcoming Passes

Altitude History

Altitude vs Time

uPlot chart will show altitude changes over time

Two-Line Element Set

1 67017C 25293Q 25346.10395833 -.00184270 00000+0 -25259-3 0 3469
2 67017 69.9972 325.9262 0004650 268.3093 199.3432 16.06116499 15
Epoch: Dec 12, 2025 • Age: 50 hours

Current Status

Altitude 266.8 km
Velocity 7.75 km/s
Sub-Earth Point -23.42°S, 158.74°W
Launch Date Dec 10, 2025
Age 3 days
Type internet

Technical Details

Classification Payload
Mass 575.00 kg
Dry Mass 530.00 kg
Total Mass 575.00 kg
Length 0.30 m
Diameter 4.10 m
Span 29.00 m
Shape Box + pan
Manufacturer SPXS
Bus Type Starlink V2MO
Phase Status In Orbit
Owner/State SPXS/US

Large Constellations

Loading constellations...